Find Starlink 3741

NORAD ID: 52619 Int'l Des: 2022-052 Owner: SPXS Country: US Constellation: starlink operational
LEOCIRCULAR

当前视图

正在加载3D地球...

About Starlink 3741

Starlink 3741 (NORAD 52619) is a starlink constellation satellite (v1.5) launched May 14, 2022 by SPXS of US. It operates in LEO, CIRCULAR orbit with a mass of 297.00 kg.

关于 Starlink 3741

正在加载描述...

即将过境

Passes for default location (London). Set your location on the main map for personalized predictions.

高度历史

Loading altitude history...

两行轨道根数

1 52619U 22052X 26176.44546142 .00166542 00000-0 98077-2 0 9993
2 52619 53.1603 145.2074 0001757 74.1536 285.9650 15.10407876227254
Epoch: Jun 25, 2026 • Age: 9 hours

当前状态

高度 539.4 km
速度 7.59 km/s
星下点 -15.27°S, 128.71°E
发射日期 May 14, 2022
运行时间 4.1 years
类型 internet

技术详情

分类 Payload
质量 297.00 kg
干质量 275.00 kg
总质量 297.00 kg
长度 0.20 m
直径 2.80 m
跨度 9.00 m
形状 Box + pan
制造商 SPXS
平台类型 Starlink
阶段状态 In Orbit
所有者/国家 SPXS/US

Most Searched